Weather Roundup
Issued by NWS Corpus Christi, TX

Home | Current Version | Previous Version | Text Only | Print | Product List | Glossary On
Versions: 1 2 3 4 5 6 7 8 9 10 11 12 13 14 15 16 17 18 19 20 21 22 23 24 25 26 27 28 29 30 31 32 33 34 35 36 37 38 39 40 41 42 43 44 45 46 47 48 49 50
395
ASUS44 KCRP 250610
HRRCRP

SOUTH TEXAS REGIONAL WEATHER ROUNDUP
NATIONAL WEATHER SERVICE CORPUS CHRISTI TX
100 AM CDT TUE JUL 25 2017


TXZ229>244-250700-
...CORPUS CHRISTI AREA OBSERVATIONS...

CITY           SKY/WX    TMP DP  RH WIND       PRES   REMARKS
CORPUS CHRISTI MOCLDY    81  78  91 S10       30.00S
NAS CORPUS CHR PTCLDY    85  78  80 S15       30.00S HX  96
ROCKPORT       PTCLDY    83  75  77 SE10G18   30.00R HX  90
KINGSVILLE NAS CLEAR     82  76  81 SE9       30.00S
ALICE          PTCLDY    81  74  79 S15       29.99S
FALFURRIAS     CLEAR     81  73  77 SE7       29.99F
$$

...VICTORIA AREA OBSERVATIONS...

CITY           SKY/WX    TMP DP  RH WIND       PRES   REMARKS
VICTORIA       PTCLDY    79  74  84 SE8       30.02S
BEEVILLE       FAIR      80  80 100 SE6       30.01S HX  90
PLEASANTON     PTCLDY    82  73  74 SE10G17   30.00R
SAN ANTONIO    PTCLDY    81  72  74 SE13      30.03R
$$

...LAREDO AREA OBSERVATIONS...

CITY           SKY/WX    TMP DP  RH WIND       PRES   REMARKS
LAREDO         CLEAR     86  69  56 S22G29    29.97S HX  90
COTULLA        CLEAR     84  72  67 S13       29.98R
DEL RIO        CLOUDY    88  60  38 E9        29.94R
MCALLEN        MOCLDY    84  76  76 SE15      29.99R HX  93
HEBBRONVILLE   CLEAR     81  69  66 S10G17    30.02R
$$

...OTHER TEXAS OBSERVATIONS...

CITY           SKY/WX    TMP DP  RH WIND       PRES   REMARKS
BROWNSVILLE    CLEAR     81  78  91 SE8       30.00S
HOUSTON        CLOUDY    82  74  76 S5        30.04R
COL. STATION   CLOUDY    82  74  76 S10       30.02R
AUSTIN         MOCLDY    81  73  76 S9        30.02R
WACO           CLEAR     79  75  87 SE10      30.01R
FORT WORTH     CLEAR     81  74  79 SE8       29.99R
WICHITA FALLS  CLEAR     78  72  81 SE7       29.99R
LUBBOCK        MOCLDY    77  65  66 S8        30.09S
EL PASO        CLOUDY    81  63  54 SE3       30.09S
$$

...MARINE OBSERVATIONS...

STATION/POSITION TIME  SKY/WX   TEMP    WIND        PRES    VSBY  WAVE   SWELL
                                AIR SEA DIR/SP/G                  HT/PER HT/PER
                 (UTC)          (F)     (DEG/KT/KT) (MB)    (MI)  (FT/S) (FT/S)
PORT ARANSAS     0500            84 85  140/ 20/ 22 1015.8R
BUOY 90 E PORT A 0450            85 86  140/ 14/ 16 1016.8          3/ 6   2/13
BUOY 45 SE BAFFI 0450            85     150/ 17/ 21 1014.9          5/ 6
BUOY 200 E PT IS 0450            86 87  120/ 14/ 16 1017.1          3/ 5   2/ 8
BUOY 15 E GALVES 0450            85 87  180/ 14/ 16 1016.9          2/ 6   2/ 6
$$




USA.gov is the U.S. government's official web portal to all federal, state and local government web resources and services.